Wind_Speed
87 90 93 97 97 102 108 109 104 95 82 74 75 77 77 80 77 76 78 76 76 80 83 87 88 87 82 92 98 92 102 107 103 97 93 86 87 94
89 91 96 100 101 105 107 108 105 95 77 71 69 75 76 77 78 76 74 73 79 82 86 83 85 83 90 92 97 102 104 107 105 97 91 89 91 98
87 93 97 102 106 108 109 109 106 94 75 63 66 72 71 74 68 67 69 75 78 85 86 81 80 83 89 94 98 102 102 108 100 98 93 92 96 99
92 98 100 106 109 110 111 110 100 90 75 60 63 65 62 62 60 65 71 76 81 80 84 78 81 84 88 96 98 102 103 108 95 97 93 96 98 103
101 105 105 110 110 114 113 107 97 85 71 61 65 63 65 66 60 67 74 78 81 79 76 76 85 90 92 99 99 104 105 101 101 92 94 98 101 104
104 106 108 110 109 113 111 105 93 81 68 59 62 62 66 66 62 68 74 74 78 76 76 81 85 90 99 101 102 105 98 100 97 93 96 99 104 103
107 110 112 113 110 112 111 102 90 76 64 57 60 67 69 68 66 68 71 70 75 76 79 84 90 95 99 101 103 96 97 101 93 94 97 103 104 100
111 115 116 115 111 110 106 98 84 73 62 53 61 68 67 69 63 67 66 72 75 79 84 90 92 95 100 102 104 96 97 97 93 95 101 105 104 94
118 115 116 114 117 109 102 90 79 70 62 56 58 66 67 65 70 66 73 79 78 83 90 94 91 94 100 101 99 94 99 92 94 99 104 105 99 91
119 114 110 113 110 108 97 82 74 68 62 56 56 63 64 70 70 75 79 78 83 88 89 93 92 96 98 96 95 94 101 94 94 100 105 104 99 89
116 113 110 111 105 99 85 75 71 64 61 54 55 57 64 65 72 77 77 84 89 85 93 92 95 98 96 94 90 98 101 93 96 103 105 102 99 85
111 110 110 109 99 85 77 72 62 58 57 53 54 58 64 69 69 71 77 87 86 89 94 94 94 94 92 92 96 97 92 93 98 103 101 100 90 78
109 106 98 87 78 72 72 62 56 55 54 53 56 60 62 70 72 73 79 86 90 92 94 92 94 92 94 93 97 88 89 92 100 99 95 92 80 69
98 92 81 73 68 66 62 55 53 54 51 51 55 58 66 70 71 78 83 88 88 88 89 91 94 88 90 95 89 88 91 96 97 95 92 83 73 63
76 70 66 67 64 57 54 52 51 52 51 54 49 56 60 71 78 80 84 87 86 88 86 88 85 87 89 94 89 91 95 97 96 95 88 76 65 60
68 65 63 62 52 52 51 49 49 51 51 55 59 66 73 74 78 83 83 85 86 85 85 80 84 88 88 78 87 92 93 96 99 95 81 69 60 55
63 63 58 50 49 48 47 47 47 44 48 55 59 63 66 70 73 76 76 77 77 78 76 80 84 75 74 81 88 93 96 97 95 81 67 58 54 50
59 54 47 46 45 44 44 43 39 38 42 48 53 58 62 68 69 70 74 67 66 70 74 72 66 72 75 81 84 90 88 90 79 66 57 51 48 48
50 46 46 45 41 40 39 36 34 32 36 42 45 47 55 61 59 55 56 60 66 69 64 63 66 69 75 81 87 89 91 80 67 59 55 50 46 36
46 45 44 41 38 34 32 28 28 31 33 33 35 39 40 40 47 53 58 60 60 59 57 61 65 73 77 85 88 88 87 73 61 52 47 43 39 37
43 42 40 36 34 30 28 29 30 31 34 36 36 37 41 47 52 49 52 57 52 53 57 61 67 73 80 82 86 86 73 63 57 52 42 35 31 30
40 37 32 33 32 29 29 26 29 28 29 35 37 40 42 41 47 49 52 48 47 50 56 63 69 77 81 84 85 76 64 56 49 42 34 30 31 31
37 34 35 34 34 32 31 31 35 37 36 38 36 32 36 37 39 41 40 43 44 51 59 65 72 78 80 83 74 64 56 49 42 37 34 33 31 23
Wind_Direction
307 308 310 311 314 313 313 313 313 312 304 294 292 291 296 294 295 293 292 291 294 296 297 299 303 307 304 306 308 312 313 318 320 320 322 318 314 314
307 310 310 310 311 312 311 312 315 314 304 294 294 293 294 293 294 291 293 295 295 296 298 303 307 305 306 306 308 311 315 317 318 320 320 316 316 315
310 309 310 310 311 311 311 313 314 312 303 295 292 292 290 291 292 293 293 294 294 298 302 306 305 304 304 306 311 312 314 317 319 321 319 316 316 316
308 309 310 309 310 310 311 312 312 310 301 293 288 288 287 284 290 291 290 291 295 296 300 302 301 303 305 309 311 314 314 319 320 319 318 317 317 316
306 306 307 308 308 308 310 312 309 305 297 290 285 285 285 286 287 287 288 291 294 297 301 302 301 303 305 310 311 314 317 317 319 318 318 318 318 316
302 303 305 305 306 307 307 309 306 302 293 285 284 284 283 285 288 287 290 294 296 301 299 299 302 304 307 312 312 318 318 319 318 318 318 319 317 320
302 302 302 302 303 304 305 307 302 298 289 283 278 280 287 287 290 290 290 296 298 298 297 302 304 308 311 313 317 317 317 319 317 317 319 319 319 323
298 300 300 302 302 302 301 302 297 294 285 272 274 278 283 286 289 291 295 295 297 296 299 302 307 308 310 314 317 316 316 317 316 317 319 319 321 324
296 297 298 299 299 299 297 297 294 290 281 268 269 276 281 285 288 290 293 296 296 296 299 304 306 311 312 315 314 316 319 317 316 317 320 319 323 325
294 294 294 295 296 295 295 293 289 286 277 267 265 271 273 279 284 287 291 293 293 299 298 303 309 312 313 313 314 315 318 316 315 318 318 321 325 325
292 292 293 293 292 292 291 289 286 281 273 266 262 268 272 276 282 285 290 290 297 300 300 305 308 311 312 312 313 317 316 314 314 318 319 323 326 323
294 292 293 293 289 288 286 286 280 275 269 265 261 267 273 275 280 284 287 293 299 300 301 307 307 310 311 312 315 315 314 314 315 317 321 324 324 320
292 291 292 288 285 283 285 281 274 270 267 267 262 265 270 275 279 283 288 291 297 300 303 306 307 307 308 310 314 313 314 314 315 320 324 325 323 320
289 287 287 283 281 282 278 273 269 265 262 261 261 266 270 274 277 281 286 288 294 299 301 303 305 305 305 311 313 313 314 315 319 323 327 324 323 320
285 283 281 280 282 276 270 266 263 259 256 254 245 255 265 269 273 279 284 289 292 295 301 302 302 303 308 311 311 313 315 317 321 327 326 323 321 319
284 281 279 279 274 269 268 262 259 257 254 258 257 260 262 269 273 276 281 288 294 295 299 300 302 306 309 310 312 313 316 318 324 326 324 320 320 319
278 278 276 271 267 266 262 258 259 256 254 254 256 260 264 269 273 276 284 290 294 294 297 301 305 309 310 312 314 315 317 323 324 323 321 320 318 316
275 272 268 265 263 260 257 257 256 252 251 255 258 262 267 271 276 280 286 289 291 293 301 306 310 311 312 312 313 315 321 326 324 322 320 318 316 313
267 266 265 261 259 255 254 251 251 249 248 251 256 261 266 271 277 279 283 288 293 301 303 311 311 311 313 313 316 319 326 327 324 321 321 318 314 311
263 262 259 256 253 248 244 244 246 248 252 255 263 264 268 271 273 278 289 291 299 307 311 311 313 314 314 315 317 324 326 325 323 322 317 312 311 316
258 254 251 249 247 236 233 235 240 243 250 251 247 257 261 266 274 284 290 301 304 310 313 315 315 316 317 318 321 327 326 325 325 325 322 317 322 327
252 248 241 238 230 222 226 223 229 240 233 236 250 256 264 272 279 287 294 302 307 312 315 316 317 318 317 322 326 327 327 327 325 322 327 333 333 332
242 237 229 224 219 214 214 212 223 236 237 249 262 272 276 279 298 301 301 302 311 316 318 318 319 319 323 326 329 328 329 329 328 336 336 337 336 332
Height
10598 10586 10575 10563 10557 10545 10532 10522 10516 10508 10496 10481 10471 10467 10464 10460 10459 10454 10448 10439 10432 10426 10419 10411 10401 10392 10383 10373 10361 10349 10337 10323 10308 10294 10279 10267 10254 10241
10580 10570 10559 10545 10538 10529 10516 10502 10492 10485 10481 10465 10458 10449 10448 10442 10438 10433 10428 10422 10413 10407 10400 10392 10383 10374 10366 10355 10344 10331 10319 10305 10290 10276 10261 10247 10233 10218
10560 10552 10543 10529 10519 10508 10495 10485 10472 10462 10459 10453 10444 10436 10434 10426 10421 10416 10409 10404 10398 10391 10383 10378 10369 10358 10349 10337 10325 10313 10300 10287 10271 10256 10240 10225 10212 10195
10540 10530 10524 10509 10500 10485 10474 10467 10456 10444 10438 10436 10426 10422 10420 10413 10409 10401 10395 10387 10383 10376 10369 10364 10353 10344 10331 10319 10307 10296 10281 10266 10250 10236 10219 10207 10188 10169
10517 10508 10504 10488 10480 10462 10452 10448 10437 10427 10420 10416 10410 10407 10403 10399 10395 10388 10380 10371 10364 10361 10355 10348 10336 10325 10313 10301 10289 10276 10263 10246 10233 10215 10200 10184 10167 10146
10497 10487 10480 10469 10458 10443 10432 10428 10418 10410 10401 10397 10391 10390 10385 10382 10380 10373 10362 10354 10348 10344 10338 10332 10323 10308 10297 10283 10273 10257 10241 10228 10212 10197 10182 10165 10146 10126
10474 10463 10454 10444 10437 10423 10408 10407 10396 10390 10384 10380 10374 10372 10369 10367 10364 10356 10346 10340 10333 10327 10322 10316 10308 10291 10280 10265 10251 10237 10223 10209 10194 10179 10162 10145 10126 10108
10449 10439 10427 10418 10411 10400 10387 10382 10376 10370 10366 10363 10358 10355 10353 10352 10347 10342 10331 10324 10321 10311 10306 10297 10292 10276 10263 10250 10236 10220 10205 10190 10176 10160 10144 10125 10105 10090
10416 10411 10402 10391 10380 10375 10364 10359 10356 10352 10347 10345 10342 10340 10339 10335 10329 10326 10317 10308 10302 10296 10290 10282 10273 10259 10246 10234 10220 10204 10188 10172 10157 10140 10124 10104 10084 10070
10388 10381 10374 10364 10356 10347 10341 10339 10334 10331 10330 10328 10327 10325 10324 10321 10314 10308 10302 10293 10286 10283 10273 10267 10257 10243 10231 10218 10203 10187 10171 10155 10139 10124 10105 10085 10065 10051
10358 10350 10344 10335 10328 10320 10318 10316 10312 10310 10310 10310 10311 10312 10310 10305 10299 10295 10288 10278 10272 10268 10256 10250 10239 10227 10216 10202 10188 10173 10155 10140 10123 10107 10087 10068 10052 10034
10328 10318 10312 10305 10300 10295 10293 10292 10291 10292 10293 10295 10296 10297 10295 10288 10285 10281 10272 10263 10257 10254 10242 10234 10222 10211 10199 10183 10173 10158 10140 10124 10106 10090 10073 10056 10040 10020
10298 10289 10282 10273 10273 10273 10269 10270 10270 10274 10277 10279 10282 10283 10278 10273 10270 10265 10258 10249 10245 10239 10229 10219 10207 10195 10183 10169 10154 10140 10126 10110 10092 10075 10058 10039 10024 10008
10265 10259 10256 10250 10250 10251 10248 10249 10253 10256 10261 10265 10267 10267 10263 10259 10257 10252 10244 10237 10234 10227 10215 10204 10192 10180 10168 10154 10136 10122 10108 10091 10073 10056 10041 10022 10008 9994
10237 10234 10231 10228 10229 10229 10229 10231 10235 10239 10245 10249 10255 10251 10248 10247 10243 10238 10232 10225 10221 10213 10202 10188 10177 10166 10155 10139 10119 10106 10092 10070 10055 10038 10022 10006 9994 9980
10214 10212 10210 10208 10208 10209 10210 10214 10217 10223 10229 10233 10237 10238 10236 10235 10232 10225 10220 10216 10208 10198 10187 10176 10164 10152 10138 10123 10108 10089 10076 10057 10037 10023 10010 9994 9983 9970
10191 10189 10188 10189 10190 10191 10193 10197 10202 10210 10215 10219 10222 10225 10225 10223 10218 10213 10210 10203 10195 10184 10173 10164 10151 10138 10123 10109 10090 10072 10057 10044 10028 10011 9998 9985 9971 9962
10167 10167 10169 10172 10175 10176 10178 10183 10190 10195 10200 10205 10208 10211 10211 10207 10204 10201 10198 10190 10181 10171 10163 10151 10137 10123 10110 10096 10084 10063 10047 10036 10015 9999 9987 9974 9964 9950
10146 10149 10153 10156 10160 10163 10167 10171 10176 10182 10188 10194 10195 10198 10197 10195 10192 10189 10185 10178 10169 10162 10151 10137 10124 10111 10097 10081 10067 10048 10029 10020 10004 9988 9974 9962 9952 9945
10128 10132 10136 10141 10146 10151 10155 10160 10165 10171 10176 10180 10184 10184 10183 10182 10181 10178 10174 10167 10161 10149 10137 10125 10113 10099 10083 10067 10048 10035 10018 10001 9990 9979 9967 9954 9943 9935
10112 10117 10121 10127 10133 10140 10145 10150 10156 10162 10167 10170 10171 10172 10173 10173 10173 10169 10163 10158 10148 10137 10126 10114 10100 10085 10070 10052 10036 10021 10007 9991 9976 9965 9956 9946 9937 9930
10096 10103 10111 10116 10122 10128 10134 10141 10149 10155 10159 10159 10162 10164 10166 10166 10164 10159 10155 10147 10137 10127 10116 10103 10088 10075 10056 10041 10025 10008 9993 9980 9970 9958 9947 9937 9929 9924
10083 10090 10097 10105 10111 10118 10127 10134 10140 10145 10150 10153 10155 10159 10159 10158 10156 10151 10145 10136 10127 10118 10106 10092 10079 10063 10046 10030 10012 9996 9983 9973 9962 9952 9942 9932 9927 9922